Torna al catalogo

IRIDIUM 175

AttivoComunicazioniPO
NORAD 43928·PAYLOAD·🇺🇸 United States

Lanciato Jan 11, 2019 da Vandenberg Space Force Base

Loading…

Prossimi Passaggi (prossime 24 ore)

TLE

AggiornatoSource: CelesTrak SupGP

Epoca: Sep 14, 2026, 08:46 UTC

1 43928C 19002G   26257.36562500  .00003868  00000+0  11431-2 0  2570
2 43928  86.4465 253.2249 0001195 324.9162 146.3055 14.43641157    12

Traccia IRIDIUM 175 in tempo reale con AllMySat

Download on the App Store